GFSSE_sfc_temp_057.txt.gz
Temp
78 78 80 80 80 79 79 79 79 79 78 78 79 79 78 78 78 78 78 78 78 79 80 80 79 79 79 79 79 78 78 78 79 79 79 79 79 79 79 80 81 80 79
80 78 79 79 80 80 79 79 79 78 78 78 78 78 78 78 78 78 78 78 79 79 79 80 79 79 79 79 78 78 78 78 78 78 79 79 79 79 80 80 79 77 77
78 78 79 79 80 80 79 78 78 78 78 78 78 78 78 78 78 78 78 78 79 79 80 79 79 79 79 79 78 78 78 77 78 78 79 73 76 80 80 80 78 78 78
79 77 78 79 79 79 79 78 77 78 78 78 78 78 78 78 78 78 78 78 79 80 79 79 79 79 79 78 78 78 77 78 78 78 74 77 78 79 79 79 79 78 78
78 78 78 79 79 79 79 78 77 77 77 78 78 78 78 78 77 77 78 78 79 80 80 79 79 79 78 78 78 77 77 77 77 78 76 74 73 79 79 79 78 78 78
78 79 79 78 78 78 79 78 77 77 77 78 78 78 78 78 77 77 77 78 79 79 79 79 79 78 78 78 77 77 77 77 77 75 76 79 75 78 79 78 79 78 77
79 78 77 78 78 78 79 78 78 77 77 77 78 78 78 77 77 77 77 78 78 79 79 79 78 78 77 77 77 77 77 77 75 73 74 75 75 77 79 78 78 77 77
82 76 77 78 78 78 78 78 78 77 77 77 77 77 77 77 77 77 77 77 78 78 78 79 78 77 77 76 77 76 76 77 77 72 74 73 75 77 79 78 78 78 77
83 77 76 75 77 78 78 77 77 77 77 77 77 77 77 77 77 77 77 77 77 77 78 78 77 77 76 76 76 75 76 77 72 71 76 72 77 78 79 78 78 79 77
81 78 74 74 75 74 75 77 77 77 77 76 76 76 76 76 76 76 75 76 77 77 77 77 77 76 76 75 75 75 76 77 71 71 72 72 77 79 79 78 78 78 77
81 77 76 74 73 72 73 76 76 77 77 76 76 76 75 71 71 73 75 75 77 77 77 77 76 76 76 75 75 75 76 70 70 71 72 76 77 79 78 78 77 78 77
80 79 78 77 75 73 80 73 71 73 72 72 72 71 70 68 68 74 74 76 76 76 76 76 76 76 76 70 70 75 72 70 71 73 72 77 77 79 78 78 77 77 77
85 85 82 78 77 77 80 73 72 72 71 71 71 69 69 71 70 73 71 73 71 75 72 74 73 73 71 69 70 70 71 72 71 73 76 76 77 78 78 77 77 77 77
89 87 83 81 78 79 81 76 74 74 73 72 72 70 70 70 69 71 71 71 69 71 69 67 69 69 69 71 72 72 72 72 73 72 74 76 76 78 78 77 77 77 76
84 85 80 80 80 81 79 78 76 75 75 74 73 73 73 71 71 72 70 70 70 71 69 69 68 70 70 71 73 74 74 74 75 72 72 76 75 76 78 78 77 77 77
84 84 80 74 80 81 82 80 78 78 78 76 76 75 74 74 73 72 73 71 69 72 72 71 71 70 71 71 72 74 74 76 75 73 70 73 75 75 76 77 78 77 77
82 81 82 78 80 79 81 76 75 77 77 78 78 77 75 74 73 73 72 74 70 72 72 72 71 70 69 73 72 74 74 75 73 76 72 69 74 75 75 76 77 77 77
82 81 78 86 80 81 78 79 77 74 74 75 75 77 76 75 74 72 74 71 75 70 73 71 71 71 70 71 71 70 69 73 73 74 68 68 67 70 74 75 75 76 76
80 78 77 82 82 78 74 74 73 73 74 78 75 75 77 76 75 75 73 73 71 74 70 69 68 70 69 67 68 68 68 68 69 71 69 68 67 68 68 73 74 75 75
80 77 78 78 77 77 76 74 73 73 74 74 78 77 75 76 76 74 75 70 71 70 69 68 68 68 67 67 70 68 66 66 67 67 67 69 66 68 67 67 68 70 74
75 76 76 76 74 76 72 72 70 72 72 73 73 76 76 75 76 76 71 72 70 69 69 69 68 67 66 67 65 63 64 66 66 65 66 66 66 68 67 66 66 65 70
75 75 73 76 75 74 72 71 72 71 72 76 74 75 75 75 74 75 72 70 69 69 68 69 68 65 65 65 62 61 58 61 63 65 65 65 65 66 67 67 68 66 66
76 72 73 74 75 74 73 70 69 69 69 70 71 72 73 75 74 74 72 70 69 69 68 68 67 66 63 63 66 61 59 55 57 62 64 64 65 63 64 65 66 68 66
74 74 74 74 73 73 72 69 70 74 70 68 71 71 71 74 74 72 72 70 70 70 68 68 70 66 65 62 64 66 63 61 56 55 60 62 63 64 63 63 62 65 65
77 74 73 73 72 72 74 74 72 67 69 70 69 71 70 71 72 73 71 70 70 71 68 68 67 66 65 64 63 62 61 61 60 57 54 58 60 62 62 62 62 63 63
73 74 73 72 74 74 73 72 71 69 69 69 69 69 68 69 69 71 71 69 71 71 69 68 68 67 65 64 63 62 61 59 58 57 55 56 57 59 61 62 62 62 62

GFSSE_sfc_temp_060.txt.gz
Temp
75 77 79 80 79 79 79 79 79 79 78 78 78 78 78 78 78 78 79 78 78 79 79 79 79 79 79 79 78 78 78 78 78 79 79 78 79 79 79 79 79 79 79
78 78 79 79 79 79 79 79 79 78 78 78 78 78 78 78 78 78 78 78 79 79 79 79 79 79 79 79 78 78 78 78 78 78 79 78 79 79 79 80 79 77 78
77 77 78 79 80 79 79 78 78 78 78 78 78 78 78 78 78 78 78 78 79 79 79 79 79 79 79 78 78 78 77 77 77 78 78 72 74 79 79 80 79 79 78
77 76 77 79 79 79 78 78 78 78 78 78 78 78 78 78 78 78 78 78 79 79 79 79 79 79 78 78 78 77 77 77 77 78 73 75 76 79 79 79 79 79 78
76 76 76 79 79 79 78 78 78 78 78 78 78 78 78 78 77 77 78 78 79 80 80 79 79 78 78 78 77 77 76 76 77 77 73 71 70 78 79 79 79 79 78
76 77 78 78 79 78 78 78 78 78 78 78 78 78 78 78 77 77 77 78 79 80 79 79 79 78 78 77 77 76 76 76 77 73 73 75 73 78 79 78 78 78 77
76 77 77 78 79 79 78 78 77 77 77 78 78 78 77 77 77 77 77 78 78 79 79 79 78 77 77 77 76 76 76 76 74 71 72 73 73 77 79 78 78 77 77
77 76 76 78 78 78 78 78 77 77 77 77 77 77 77 77 77 77 77 77 78 78 78 78 78 77 76 76 76 76 76 76 76 70 72 71 73 77 79 78 77 77 77
78 75 75 76 77 78 78 77 77 76 76 77 76 76 76 76 76 76 76 77 77 77 77 78 77 76 76 76 76 75 75 76 71 68 73 70 76 78 79 78 78 77 77
75 75 73 73 74 74 75 77 77 77 76 76 76 76 76 76 76 76 75 76 77 77 77 77 77 76 76 75 75 75 75 76 70 69 69 70 76 78 79 78 78 78 77
75 72 71 71 71 72 73 76 76 77 77 76 76 76 74 71 72 73 74 75 76 76 76 76 76 76 75 75 75 75 76 69 69 68 69 74 76 79 79 78 78 77 77
76 73 73 72 71 70 77 73 71 73 73 72 71 71 69 68 68 72 73 76 76 76 76 76 76 76 76 69 69 74 69 69 69 69 70 76 77 79 79 78 77 77 77
80 76 74 74 71 72 75 71 70 70 69 69 69 69 68 68 68 70 67 71 69 74 71 73 72 71 69 68 68 67 68 69 69 69 74 76 77 78 79 78 77 77 76
81 80 76 76 74 74 75 71 70 70 69 69 69 68 67 66 66 65 66 66 66 68 67 66 67 68 68 68 68 68 69 69 69 69 70 76 76 77 78 78 77 77 76
79 79 77 75 74 75 74 73 70 71 71 71 69 69 69 67 66 67 66 66 68 65 67 65 66 67 67 68 70 69 70 69 71 70 70 76 76 76 78 78 78 77 77
78 78 76 74 76 76 76 74 75 73 71 69 70 70 70 70 69 68 68 67 67 68 68 68 67 67 67 68 69 70 71 71 72 72 71 72 75 75 77 78 78 78 77
77 77 76 77 78 77 78 76 76 75 74 72 72 71 71 71 70 69 68 68 68 68 68 68 65 65 65 67 67 69 70 71 71 72 69 69 74 75 76 76 77 77 77
76 79 76 83 76 78 78 75 76 75 74 74 74 72 72 71 71 69 69 69 69 68 68 68 67 64 65 65 67 68 69 68 70 70 69 68 68 70 74 75 76 76 77
77 80 80 79 78 76 75 75 74 72 72 73 73 73 73 72 72 71 70 69 68 68 68 68 67 66 63 63 66 66 65 66 67 69 68 67 66 67 67 72 74 75 76
77 76 83 84 83 82 81 79 72 71 71 70 74 73 73 72 72 71 71 69 70 69 67 66 65 65 64 66 69 67 64 66 65 65 66 68 65 66 66 66 67 70 74
73 77 73 73 78 77 71 70 71 76 73 72 72 74 73 73 73 71 71 69 71 70 69 68 65 64 63 64 62 61 62 64 64 64 64 64 65 66 65 65 64 65 69
73 74 73 75 77 77 80 79 74 78 71 75 75 73 73 73 72 72 71 70 70 68 66 66 66 63 63 63 61 60 61 60 62 63 63 64 63 64 65 66 65 65 65
72 70 75 77 77 78 78 75 68 67 66 67 68 68 69 72 73 72 71 72 70 70 67 65 65 65 62 62 64 63 59 58 56 60 62 62 63 62 63 63 65 65 65
74 74 75 77 76 77 76 76 73 70 67 67 68 69 70 71 71 72 71 70 68 67 66 66 66 64 63 62 64 64 63 60 58 55 59 60 62 62 62 61 62 64 64
74 69 71 72 72 73 72 73 74 66 67 65 66 69 68 68 71 71 71 69 68 67 67 67 65 64 66 64 63 60 60 60 60 56 53 56 59 60 61 61 60 62 63
71 70 71 69 69 69 69 69 70 68 67 64 65 65 66 67 68 70 70 69 69 67 67 68 66 65 64 63 62 61 62 59 57 56 54 55 55 58 59 60 60 61 61

GFSSE_sfc_temp_063.txt.gz
Temp
73 75 79 79 79 79 79 79 79 78 78 78 78 78 78 78 78 78 78 78 78 79 79 79 79 79 79 79 78 78 78 78 78 78 78 78 79 79 79 79 79 78 78
76 76 79 79 79 79 79 79 78 78 78 78 78 78 78 78 78 78 78 78 79 79 79 79 79 79 79 79 78 78 78 78 78 78 79 78 78 78 79 79 79 76 78
78 76 78 79 79 79 79 78 78 78 78 78 78 78 78 78 78 78 78 78 79 79 79 79 79 79 79 79 78 78 77 77 77 78 78 71 73 78 79 80 79 78 77
78 76 76 79 79 79 78 78 78 78 78 78 77 78 78 78 78 78 78 78 79 79 79 79 79 79 79 78 78 77 77 77 77 78 71 73 75 79 79 79 79 79 78
76 76 76 78 78 79 78 78 78 78 78 78 78 78 78 77 77 77 78 78 79 80 79 79 79 79 78 78 77 77 76 76 77 75 72 70 69 78 79 79 79 78 78
76 76 78 78 78 78 78 78 78 78 78 78 78 78 78 77 77 77 77 78 79 79 79 79 78 78 78 77 77 76 76 76 76 71 71 72 70 77 79 78 78 78 77
75 76 77 78 78 78 79 78 78 78 77 78 78 78 78 77 77 77 77 78 78 79 79 79 78 77 77 77 76 76 76 76 72 70 71 71 72 76 78 78 78 78 77
75 75 76 78 78 78 78 78 77 77 77 77 77 77 77 77 77 77 77 77 78 78 78 78 78 77 76 76 76 76 75 76 73 69 69 70 72 76 79 78 77 77 77
76 75 75 76 77 78 78 77 77 77 77 77 77 76 76 76 76 76 76 77 77 77 77 77 77 76 76 76 76 75 75 76 69 68 71 69 74 77 79 78 78 77 77
71 74 72 73 74 73 74 77 77 76 76 76 76 76 76 76 76 76 75 76 77 77 76 76 76 76 75 75 75 75 75 76 68 68 68 68 74 77 79 78 78 78 77
71 68 70 71 71 70 71 75 76 77 77 76 76 76 74 72 72 73 74 75 76 76 76 76 76 76 75 75 75 75 76 68 68 67 67 72 75 78 79 78 78 77 77
71 68 68 70 70 69 75 71 71 72 73 72 72 72 70 68 68 71 73 76 76 76 76 76 76 76 75 68 68 74 68 68 68 68 68 74 76 78 79 78 77 77 77
75 75 71 70 70 69 72 69 70 68 68 68 68 68 67 68 67 69 67 69 68 74 69 72 70 69 68 67 67 67 67 67 67 68 71 75 76 78 79 78 76 76 76
78 76 74 74 71 69 72 71 70 70 67 67 67 67 67 66 65 65 66 65 66 65 65 66 66 67 67 67 67 67 67 66 66 67 68 74 75 77 79 79 77 77 76
77 76 74 75 72 73 72 72 68 69 69 68 67 67 67 66 65 64 65 64 64 64 64 64 64 65 66 67 67 67 67 66 67 67 67 74 75 76 78 79 78 78 77
78 77 74 73 74 74 73 72 70 70 69 67 69 68 67 67 64 64 63 64 63 64 64 65 64 64 65 65 66 67 67 67 68 68 68 69 75 75 77 78 78 78 78
74 80 75 73 72 71 72 70 69 71 71 70 70 68 68 66 64 64 63 63 65 65 64 64 63 63 63 65 65 66 66 67 68 68 68 69 71 75 76 76 76 77 77
72 73 77 80 75 73 74 74 73 75 72 73 71 69 69 68 67 65 65 64 64 64 66 65 63 61 62 62 63 64 65 65 67 68 69 68 68 69 73 76 76 76 77
75 73 72 74 75 74 76 76 77 75 74 73 72 71 70 69 69 67 67 66 65 65 65 65 63 64 61 61 63 64 63 64 65 68 68 67 68 67 66 72 74 75 76
74 75 72 73 75 76 77 77 75 72 73 70 72 72 71 71 70 68 68 66 66 65 64 63 63 63 62 63 66 65 63 63 66 65 65 66 65 65 65 65 65 70 74
73 70 72 71 72 74 76 75 74 74 74 72 73 73 72 71 70 68 69 66 66 66 66 65 63 62 61 62 61 60 61 63 63 63 63 63 64 65 64 64 64 64 66
69 72 74 74 77 73 76 78 75 78 78 78 74 70 71 71 70 69 68 67 67 67 64 65 64 61 62 65 63 60 57 59 61 62 63 62 63 63 64 65 64 64 64
69 67 72 74 76 74 76 69 66 67 67 67 68 68 69 70 71 71 69 68 67 69 66 65 65 64 63 64 64 64 59 58 58 58 60 61 62 61 62 63 64 64 64
69 71 69 75 75 76 77 76 72 78 76 71 70 69 70 69 70 70 69 69 68 68 65 67 66 65 65 63 63 64 64 63 57 55 58 59 60 61 61 61 62 63 63
71 71 69 68 70 75 75 78 76 68 73 67 67 67 66 66 68 70 69 69 68 68 67 66 64 63 65 64 64 61 62 61 58 59 54 56 58 59 60 60 61 61 62
65 66 67 65 69 69 70 73 74 76 71 66 65 65 64 65 67 69 69 68 68 67 67 66 65 64 63 63 63 64 62 59 57 56 54 54 55 57 58 59 60 60 60

GFSSE_sfc_temp_069.txt.gz
Temp
85 87 80 80 80 80 80 80 79 79 79 79 80 80 79 79 79 79 79 79 79 79 80 80 79 79 79 79 79 79 78 78 79 79 79 79 79 79 79 80 79 85 79
88 87 81 80 80 80 80 80 79 79 79 79 79 79 79 79 79 79 79 79 79 79 80 80 80 79 80 80 79 79 79 79 78 79 78 79 79 79 79 79 79 82 79
88 86 83 79 80 80 80 79 79 78 78 79 79 79 79 79 79 79 78 79 79 80 80 80 80 80 80 79 79 78 78 78 78 79 79 87 86 79 80 80 79 79 78
87 85 85 79 79 79 79 79 79 78 78 78 78 78 78 78 78 78 78 79 80 80 80 80 80 80 79 79 79 78 78 78 78 77 86 87 86 79 79 80 79 79 78
87 87 85 79 79 79 79 79 78 78 78 78 79 78 78 78 78 78 78 79 80 80 80 80 79 79 79 79 78 77 77 77 77 81 84 86 86 83 79 79 79 79 79
89 88 82 79 79 79 79 79 78 78 78 78 79 78 78 78 78 77 78 78 79 80 80 80 79 79 79 78 77 77 77 77 77 85 84 83 85 79 79 79 79 79 78
89 89 85 79 79 79 79 79 78 78 78 78 78 78 78 78 77 77 78 78 79 80 80 79 79 78 78 77 77 76 76 77 85 85 84 83 85 75 79 79 78 78 78
87 86 86 79 79 79 79 79 78 78 78 78 78 78 78 77 77 77 77 78 79 79 79 79 78 77 77 76 76 76 76 77 82 84 84 86 77 76 78 79 78 77 78
87 85 85 85 82 78 78 78 78 77 77 77 77 77 77 77 77 77 77 78 78 78 78 78 77 77 76 76 76 76 76 76 84 86 85 86 75 76 78 79 79 77 77
86 88 86 85 87 85 85 78 77 77 77 77 77 77 77 77 77 77 76 77 78 77 77 77 77 76 76 75 75 75 76 76 85 84 86 87 75 76 78 79 79 78 77
85 85 87 87 86 86 87 84 78 78 78 77 78 77 77 84 83 82 79 78 77 77 77 77 76 76 75 75 75 75 76 86 84 85 87 76 75 77 78 79 78 78 78
84 83 84 84 83 84 85 84 84 84 84 84 84 83 83 84 83 84 81 76 77 77 77 76 76 76 77 85 84 77 84 84 84 84 86 75 75 77 78 78 78 77 77
84 84 81 79 80 82 84 84 84 84 84 83 82 81 82 82 82 83 83 82 82 79 83 81 81 83 83 84 84 83 84 83 85 85 84 75 75 77 78 78 78 78 77
83 83 83 80 78 79 82 82 84 84 82 82 82 80 80 80 80 81 82 83 81 83 82 81 83 82 81 81 82 82 82 82 84 84 84 75 75 76 77 78 78 78 78
84 82 81 82 78 78 77 81 81 80 81 83 82 81 82 82 79 80 80 82 82 83 82 81 81 80 80 80 81 81 81 81 81 83 84 76 74 75 76 78 78 79 79
82 84 85 80 79 79 77 78 78 79 81 80 82 79 78 80 79 80 79 80 81 82 83 81 80 80 80 80 80 80 80 80 81 81 84 83 74 74 75 77 79 79 79
78 79 83 80 79 76 75 77 77 77 79 79 80 78 78 77 77 76 79 79 80 80 79 79 78 78 79 79 78 80 80 80 81 79 80 83 84 74 74 76 77 78 79
79 74 80 84 82 79 76 76 78 80 78 79 78 78 77 76 77 75 76 75 80 79 79 79 79 78 79 79 78 79 79 79 80 79 80 81 83 83 79 75 77 77 78
79 76 74 77 80 79 76 77 77 77 79 81 80 79 78 77 77 73 71 71 76 78 76 78 79 77 77 78 78 78 78 79 79 80 79 80 81 82 84 78 74 75 76
78 78 76 75 75 79 80 77 77 79 78 79 79 78 77 79 76 74 74 74 71 73 74 75 76 77 78 78 77 77 77 78 79 80 80 81 81 81 82 80 82 82 74
77 74 75 75 77 78 78 78 78 77 78 79 81 79 78 77 75 74 70 69 72 71 73 76 76 74 74 76 75 76 77 78 77 80 80 80 80 80 79 80 81 82 82
73 73 73 74 75 77 80 79 81 80 82 81 82 80 77 77 76 75 71 72 71 74 75 75 73 75 74 75 75 75 74 77 78 78 79 78 79 80 79 79 79 78 79
71 70 71 71 72 74 77 80 79 81 80 80 81 79 78 78 77 80 73 74 75 77 79 75 74 73 73 73 75 78 72 72 76 76 75 78 77 79 79 78 77 78 77
70 71 71 70 70 73 75 76 76 79 79 83 82 82 81 80 81 80 77 76 75 78 77 76 76 74 74 74 74 75 74 79 74 72 76 76 76 75 76 79 78 77 77
69 70 70 69 68 70 70 72 77 76 81 83 84 81 79 79 80 81 79 77 76 78 77 75 73 71 75 78 77 75 73 76 74 74 73 73 75 77 78 77 78 78 76
67 67 67 67 66 68 69 71 71 73 76 80 79 79 79 78 79 79 80 78 77 77 76 75 74 73 74 77 78 72 74 71 75 73 69 73 74 76 77 78 76 77 78

GFSSE_sfc_temp_072.txt.gz
Temp
99 95 80 80 80 80 80 80 80 80 80 80 80 80 79 79 79 79 80 79 79 80 80 80 80 80 80 80 80 79 79 79 79 80 80 80 80 80 80 80 80 87 80
101 95 80 80 80 80 80 80 80 80 80 80 80 80 79 79 79 79 79 79 79 80 80 80 80 80 80 80 80 79 79 79 79 79 79 80 80 80 80 80 80 82 79
100 94 88 80 80 80 80 80 79 79 79 79 80 79 79 79 79 79 79 79 80 80 80 80 80 80 80 80 80 79 79 79 79 79 79 93 91 80 80 80 79 79 78
99 93 92 80 80 80 79 79 79 79 79 79 79 79 79 79 79 79 79 79 80 80 80 80 80 80 80 80 79 79 79 79 79 80 91 93 93 79 80 80 79 79 78
98 96 92 79 79 80 80 79 79 79 79 79 79 79 79 79 78 78 78 79 80 81 81 80 80 80 80 79 79 78 78 78 78 82 92 92 94 84 80 80 80 79 79
100 98 86 79 79 79 80 79 79 79 78 79 79 79 79 79 78 78 78 79 80 80 81 80 80 79 79 79 78 78 78 78 77 93 92 87 90 79 80 79 79 79 78
101 100 91 79 79 79 80 79 79 79 78 78 79 79 79 78 78 78 78 79 79 80 80 80 79 79 78 78 77 77 77 78 88 95 92 90 91 79 80 79 79 79 78
100 98 92 80 79 79 79 79 78 78 78 78 78 78 78 78 78 78 78 78 79 79 79 79 79 78 77 77 77 77 77 77 88 91 91 92 78 77 79 79 79 78 78
101 98 93 89 84 79 78 78 78 78 77 78 78 77 78 78 77 78 78 78 78 79 79 78 78 77 77 77 77 77 77 77 88 93 92 92 76 77 79 79 79 78 78
100 99 95 91 92 89 88 78 78 78 77 77 77 77 77 77 77 77 76 77 78 78 78 78 77 77 77 76 77 76 77 77 88 92 92 93 77 77 78 79 79 79 78
97 97 98 97 94 93 94 88 79 78 78 77 79 77 77 89 87 86 82 79 78 78 78 77 77 77 76 76 76 76 77 90 93 93 95 78 77 78 79 79 79 79 78
94 97 98 96 94 94 97 93 88 89 89 88 89 88 88 90 91 91 86 78 77 77 77 77 77 77 77 91 89 78 87 92 93 92 94 78 76 78 79 79 79 79 78
97 96 96 92 92 94 96 95 93 93 92 91 89 89 88 91 91 90 92 88 86 80 88 84 84 86 88 91 93 92 93 92 93 93 90 77 76 77 79 79 79 78 78
95 95 92 91 88 88 95 94 94 94 94 93 92 88 88 89 88 89 92 92 88 91 88 89 91 88 88 88 89 90 90 90 92 92 90 77 76 76 78 79 79 78 78
91 93 93 90 86 85 85 91 91 92 93 93 92 88 89 90 88 90 90 91 92 92 91 89 89 89 88 87 88 88 88 88 88 89 90 77 76 76 77 78 78 79 79
86 91 92 90 87 86 85 84 88 89 93 91 92 91 87 90 88 90 88 88 90 91 92 91 89 88 88 87 87 86 86 87 87 86 90 89 76 75 76 77 77 79 80
82 78 86 89 88 85 85 86 85 89 87 90 91 89 87 85 86 85 88 88 90 89 87 87 86 86 85 86 85 87 87 85 87 85 86 88 88 74 75 76 77 77 79
84 79 79 87 89 84 85 84 88 88 87 88 86 85 82 84 84 82 87 87 90 87 88 87 88 87 85 86 86 87 87 86 86 85 86 88 90 90 78 76 76 77 79
84 81 81 77 84 86 83 85 85 86 88 89 88 80 81 84 83 85 88 87 82 86 86 85 86 85 83 85 86 86 86 85 85 87 86 86 86 88 90 77 77 76 77
79 77 81 82 79 80 85 84 83 85 88 89 91 90 86 85 84 83 86 83 79 80 79 81 79 82 86 86 86 86 84 85 86 86 86 88 88 87 88 88 86 84 75
81 79 75 79 77 76 80 82 81 88 86 86 90 88 86 85 84 81 87 82 81 80 75 76 78 78 84 84 82 83 82 82 82 86 88 88 88 88 88 86 84 88 84
78 79 77 78 77 79 80 79 79 83 88 88 89 85 85 84 84 84 84 84 82 82 79 80 79 84 84 84 79 81 77 82 84 84 87 87 86 89 88 86 86 85 85
77 77 77 77 77 78 78 79 77 79 80 85 84 87 86 85 84 84 84 85 82 79 86 80 82 79 84 83 80 80 78 76 84 85 82 85 84 86 87 86 84 84 83
77 77 77 77 76 79 79 79 78 82 80 84 89 91 89 84 84 86 86 82 81 84 84 85 84 82 80 82 80 79 81 82 79 78 83 83 83 82 82 86 85 83 83
75 76 76 75 75 75 76 76 78 78 85 88 89 87 85 85 83 86 86 85 84 85 85 85 82 80 84 82 80 80 79 81 80 80 77 76 82 85 86 84 86 85 83
76 77 75 74 74 76 76 76 74 74 77 82 85 87 89 88 86 84 88 85 84 85 85 84 82 80 79 79 82 82 81 80 80 80 76 80 81 82 85 85 83 84 85

GFSSE_sfc_temp_075.txt.gz
Temp
103 94 81 81 80 80 81 81 81 80 80 80 80 80 79 79 79 80 80 80 80 80 81 81 80 80 80 80 80 80 80 80 80 80 80 80 81 81 81 81 82 86 80
105 95 80 80 80 80 80 81 80 80 79 80 80 80 79 79 79 79 80 79 80 80 80 80 80 80 81 81 80 80 79 79 79 80 81 80 80 80 81 81 80 83 80
104 94 88 80 80 80 80 80 80 79 79 79 80 79 79 79 79 79 79 79 80 81 81 81 81 81 81 81 80 80 79 79 79 80 81 90 89 81 81 81 80 80 79
102 94 92 80 80 80 79 79 79 79 79 79 79 79 79 79 79 79 79 79 80 81 81 81 81 81 80 80 80 80 80 80 80 81 88 95 94 81 81 80 80 79 79
102 97 93 80 79 79 79 79 79 79 79 79 79 79 79 79 79 79 79 79 80 81 81 81 81 80 80 79 79 79 79 79 80 83 93 93 94 83 81 81 81 80 79
105 100 86 79 79 79 79 79 79 79 79 79 79 79 79 79 78 78 79 79 80 81 81 81 80 80 79 79 79 79 79 79 79 91 93 89 90 80 81 81 81 80 79
106 103 91 79 79 79 79 79 79 79 79 79 79 79 79 79 78 78 78 79 80 80 81 80 79 79 79 79 78 78 78 79 86 94 94 91 88 80 81 80 80 79 79
105 102 94 81 79 79 79 79 78 78 78 78 79 78 78 78 78 78 78 79 79 80 80 80 79 78 78 78 78 77 78 78 89 92 93 93 78 80 80 80 79 79 79
106 102 94 90 84 79 79 78 78 78 78 78 78 78 78 78 78 78 78 78 79 79 79 79 78 78 77 77 77 77 77 78 85 92 94 93 77 79 80 80 80 79 79
106 104 97 92 92 89 88 78 78 78 78 77 78 77 77 77 77 77 77 77 78 78 78 78 78 77 77 77 77 77 77 78 85 91 94 90 78 79 79 79 80 79 79
104 103 101 97 94 93 93 87 79 78 78 78 79 78 77 88 86 85 83 79 78 78 78 78 77 77 77 77 77 77 77 87 92 94 95 78 79 79 79 79 79 79 79
100 102 102 98 95 95 98 92 88 89 88 87 88 86 86 90 92 92 87 79 78 78 78 77 77 77 77 88 89 78 84 89 93 94 95 78 79 79 79 79 79 79 79
99 101 102 97 96 96 98 97 92 93 91 90 88 88 88 92 93 93 92 87 85 79 86 82 83 84 87 89 92 92 93 93 94 95 90 78 78 79 79 79 79 79 78
98 98 100 98 95 94 99 99 97 95 94 93 91 89 89 89 91 91 92 93 88 90 87 89 91 89 89 88 90 90 92 92 93 94 90 78 77 78 79 79 79 79 78
94 97 99 97 92 91 90 97 97 95 96 95 94 91 91 91 89 92 91 94 94 94 93 91 91 90 90 89 89 89 90 89 90 90 91 78 77 77 78 78 79 79 79
91 92 95 95 91 89 86 87 91 93 95 96 96 94 90 91 89 92 90 91 92 94 95 94 92 90 89 89 89 88 88 88 88 88 90 88 76 76 77 78 78 79 80
90 86 87 92 90 86 87 87 88 92 93 95 95 93 91 88 89 88 90 90 91 92 91 90 90 89 87 88 87 88 88 88 87 86 87 88 86 75 76 77 77 78 79
86 84 81 90 91 87 84 84 86 90 90 92 93 93 90 88 88 87 90 89 92 90 91 90 89 88 87 87 86 88 89 89 88 86 87 87 88 90 78 76 77 77 78
83 83 82 79 83 85 85 87 87 86 88 92 92 92 87 88 87 86 88 90 88 91 89 90 88 85 84 80 84 86 87 87 87 87 86 85 86 87 89 77 76 76 77
83 81 80 80 75 80 84 83 86 86 88 90 90 89 88 86 84 81 88 88 88 88 88 89 82 86 86 84 86 87 87 86 86 85 85 86 87 87 87 79 82 83 75
82 81 79 79 76 76 78 82 81 81 86 85 90 89 90 87 85 83 86 87 86 85 81 84 84 81 84 85 84 85 85 84 80 83 86 84 85 84 84 82 76 87 81
79 79 78 78 77 76 77 77 80 82 86 86 85 86 89 89 88 86 81 86 84 86 81 83 80 83 85 88 83 83 77 83 82 80 83 83 85 82 81 80 83 80 76
80 78 78 77 78 77 77 77 77 78 80 83 84 85 86 86 86 83 81 80 85 85 88 81 81 79 87 87 84 80 77 76 83 80 80 85 82 81 84 79 79 81 81
78 81 79 77 76 76 78 76 76 77 77 80 82 81 84 86 85 85 84 81 83 88 84 83 84 84 82 85 86 82 81 81 76 78 81 81 84 83 84 85 80 81 82
77 78 79 78 77 77 75 74 76 78 83 83 83 78 80 86 83 83 85 82 83 83 80 84 85 79 87 84 87 84 79 80 79 77 72 74 81 84 85 83 85 78 78
79 78 77 75 77 77 77 77 75 74 76 77 79 79 83 83 81 79 83 83 83 80 81 86 85 79 81 84 85 85 83 80 78 76 74 78 79 82 81 81 76 81 85